Location: Newark
(43.4306°N, 0.3089°E)
Time: 10:32:05
(UTC+00:00)

S-56A Canister/Altair - Pass Details

Date: 27 August 2019
Orbit: 633 x 2499 km, 38.9° (Epoch: 15 September)

Event Time Altitude Azimuth Distance (km) Brightness Sun altitude
Rises 17:19:41 0° 202° (SSW) 4,373 11.7 14.2°
Reaches altitude 10° 17:24:35 10° 181° (S) 2,981 10.6 13.3°
Maximum altitude 17:27:58 14° 151° (SSE) 2,419 9.8 12.7°
Drops below altitude 10° 17:30:53 10° 121° (ESE) 2,484 9.7 12.2°
Sets 17:34:18 0° 95° (E) 3,190 10.0 11.5°
